Flag for Switzerland Weather past 2 weeks in Stans, Nidwalden, Switzerland

Now
54 °F

Cool.


Feels Like: 54 °F
Forecast: 46 / 62 °F
Wind: 1 mph from South

Location: Giswil

Current Time: Sep 5, 2015 at 10:44:55 AM

Latest Report: Sep 5, 2015 at 10:00 AM


Visibility: N/A

Pressure: 30.07 "Hg

Humidity: 93%

Dew point: 52 °F

Location of StansLocation

Historic Weather in Stans — Graph

°F

Stans temperature yesterday

Maximum temperature yesterday: 70 °F (at 3:00 PM)
Minimum temperature yesterday: 51 °F (at 8:00 AM)
Average temperature yesterday: 61 °F

Past Weeks' High & Low Weather Summary

 TemperatureHumidityPressure
High89 °F (Aug 30, 3:00 PM)100% (Aug 22, 8:00 AM)30.25 "Hg (Aug 22, 8:00 AM)
Low47 °F (Aug 26, 7:00 AM)31% (Aug 30, 4:00 PM)29.70 "Hg (Aug 24, 2:00 PM)
Average65 °F79%30.00 "Hg
* Reported Aug 21 9:00 AM — Sep 5 9:00 AM, Stans, Weather by CustomWeather, © 2015

Note: Actual official high and low records may vary slightly from our data, if they occured in-between our weather recording intervals... More about our weather records

Advertising

Stans weather history for previous 24 hours

 ConditionsComfort  
Time TempWeatherWind HumidityBarometerVisibility
9:00 AM
Sat, Sep 5
53 °FCool.1 mph97%30.06 "HgN/A
8:00 AM53 °FCool.1 mph97%30.05 "HgN/A
7:00 AM53 °FCool.2 mph96%30.04 "HgN/A
6:00 AM53 °FCool.1 mph96%30.04 "HgN/A
4:00 AM53 °FCool.1 mph95%30.05 "HgN/A
3:00 AM54 °FCool.2 mph93%30.04 "HgN/A
2:00 AM54 °FCool.3 mph93%30.03 "HgN/A
1:00 AM60 °FCool.2 mph62%30.00 "HgN/A
12:00 AM60 °FCool.1 mph74%29.99 "HgN/A
10:00 PM
Fri, Sep 4
64 °FMild.3 mph57%29.97 "HgN/A
9:00 PM64 °FMild.5 mph58%29.95 "HgN/A
7:00 PM65 °FMild.1 mph61%29.93 "HgN/A
6:00 PM67 °FMild.5 mph56%29.93 "HgN/A
5:00 PM68 °FMild.5 mph55%29.92 "HgN/A
4:00 PM70 °FMild.5 mph50%29.92 "HgN/A
3:00 PM70 °FMild.5 mph50%29.94 "HgN/A
2:00 PM69 °FMild.6 mph52%29.95 "HgN/A
1:00 PM68 °FMild.3 mph52%29.97 "HgN/A
12:00 PM64 °FMild.1 mph58%30.00 "HgN/A
11:00 AM61 °FCool.2 mph68%30.02 "HgN/A
10:00 AM57 °FCool.2 mph81%30.03 "HgN/A
Weather by CustomWeather, © 2015

See weather overviewHow to use our weather pages